Time,TemperatureF,DewpointF,PressureIn,WindDirection,WindDirectionDegrees,WindSpeedMPH,WindSpeedGustMPH,Humidity,HourlyPrecipIn,Conditions,Clouds,dailyrainin,SolarRadiationWatts/m^2,SoftwareType,DateUTC
2013-03-27 00:00:00,40.8,28.8,30.21,West,269,3.0,4.0,62,0.00,,---,0.00,0.00,VWS V14.01,2013-03-27 04:00:00,
2013-03-27 00:02:00,40.8,28.8,30.21,WNW,283,5.0,5.0,62,0.00,,---,0.00,0.00,VWS V14.01,2013-03-27 04:02:00,
2013-03-27 00:07:00,40.6,28.6,30.22,WNW,302,3.0,3.0,62,0.00,,---,0.00,0.00,VWS V14.01,2013-03-27 04:07:00,
2013-03-27 00:13:00,40.5,28.9,30.22,WNW,286,2.0,5.0,63,0.00,,---,0.00,0.00,VWS V14.01,2013-03-27 04:13:00,
2013-03-27 00:20:00,40.3,28.7,30.22,West,281,0.0,0.0,63,0.00,,---,0.00,0.00,VWS V14.01,2013-03-27 04:20:00,
2013-03-27 00:25:00,40.2,29.0,30.22,West,281,0.0,3.0,64,0.00,,---,0.00,0.00,VWS V14.01,2013-03-27 04:25:00,
2013-03-27 00:30:00,40.0,28.8,30.22,West,281,0.0,2.0,64,0.00,,---,0.00,0.00,VWS V14.01,2013-03-27 04:30:00,
2013-03-27 00:35:00,39.8,28.6,30.23,West,281,0.0,0.0,64,0.00,,---,0.00,0.00,VWS V14.01,2013-03-27 04:35:00,
2013-03-27 00:40:00,39.7,28.5,30.23,West,281,0.0,0.0,64,0.00,,---,0.00,0.00,VWS V14.01,2013-03-27 04:40:00,
2013-03-27 00:45:00,39.5,28.7,30.23,WNW,282,0.0,0.0,65,0.00,,---,0.00,0.00,VWS V14.01,2013-03-27 04:45:00,
2013-03-27 00:50:00,39.3,28.5,30.23,WNW,282,0.0,2.0,65,0.00,,---,0.00,0.00,VWS V14.01,2013-03-27 04:50:00,
2013-03-27 00:55:00,39.2,28.4,30.23,WNW,282,0.0,0.0,65,0.00,,---,0.00,0.00,VWS V14.01,2013-03-27 04:55:00,
2013-03-27 01:00:00,39.0,28.6,30.23,WNW,282,0.0,0.0,66,0.00,,---,0.00,0.00,VWS V14.01,2013-03-27 05:00:00,
2013-03-27 01:06:00,38.8,28.8,30.23,WNW,282,0.0,0.0,67,0.00,,---,0.00,0.00,VWS V14.01,2013-03-27 05:06:00,
2013-03-27 01:11:00,38.6,28.6,30.23,WNW,282,0.0,0.0,67,0.00,,---,0.00,0.00,VWS V14.01,2013-03-27 05:11:00,
2013-03-27 01:16:00,38.4,28.4,30.23,WNW,282,0.0,0.0,67,0.00,,---,0.00,0.00,VWS V14.01,2013-03-27 05:16:00,
2013-03-27 01:22:00,38.1,28.5,30.23,WNW,282,0.0,0.0,68,0.00,,---,0.00,0.00,VWS V14.01,2013-03-27 05:22:00,
2013-03-27 01:27:00,37.9,28.3,30.23,WNW,282,0.0,0.0,68,0.00,,---,0.00,0.00,VWS V14.01,2013-03-27 05:27:00,
2013-03-27 01:32:00,37.6,28.4,30.23,WNW,282,0.0,0.0,69,0.00,,---,0.00,0.00,VWS V14.01,2013-03-27 05:32:00,
2013-03-27 01:37:00,37.4,28.2,30.23,WNW,282,0.0,0.0,69,0.00,,---,0.00,0.00,VWS V14.01,2013-03-27 05:37:00,
2013-03-27 01:42:00,37.1,28.2,30.23,WNW,282,0.0,0.0,70,0.00,,---,0.00,0.00,VWS V14.01,2013-03-27 05:42:00,
2013-03-27 01:47:00,36.9,28.0,30.23,WNW,282,0.0,0.0,70,0.00,,---,0.00,0.00,VWS V14.01,2013-03-27 05:47:00,
2013-03-27 01:53:00,36.7,28.2,30.23,WNW,282,0.0,0.0,71,0.00,,---,0.00,0.00,VWS V14.01,2013-03-27 05:53:00,
2013-03-27 01:58:00,36.6,28.1,30.23,WNW,282,0.0,0.0,71,0.00,,---,0.00,0.00,VWS V14.01,2013-03-27 05:58:00,
2013-03-27 02:03:00,36.3,28.1,30.23,WNW,282,0.0,0.0,72,0.00,,---,0.00,0.00,VWS V14.01,2013-03-27 06:03:00,
2013-03-27 02:08:00,36.1,28.0,30.23,WNW,282,0.0,0.0,72,0.00,,---,0.00,0.00,VWS V14.01,2013-03-27 06:08:00,
2013-03-27 02:13:00,35.9,28.1,30.23,WNW,282,0.0,0.0,73,0.00,,---,0.00,0.00,VWS V14.01,2013-03-27 06:13:00,
2013-03-27 02:18:00,35.7,27.9,30.23,WNW,282,0.0,0.0,73,0.00,,---,0.00,0.00,VWS V14.01,2013-03-27 06:18:00,
2013-03-27 02:24:00,35.5,28.0,30.23,WNW,282,0.0,0.0,74,0.00,,---,0.00,0.00,VWS V14.01,2013-03-27 06:24:00,
2013-03-27 02:29:00,35.4,28.0,30.23,WNW,282,0.0,0.0,74,0.00,,---,0.00,0.00,VWS V14.01,2013-03-27 06:29:00,
2013-03-27 02:34:00,35.3,27.9,30.23,WNW,282,0.0,0.0,74,0.00,,---,0.00,0.00,VWS V14.01,2013-03-27 06:34:00,
2013-03-27 02:39:00,35.3,27.9,30.22,WNW,282,0.0,0.0,74,0.00,,---,0.00,0.00,VWS V14.01,2013-03-27 06:39:00,
2013-03-27 02:44:00,35.2,27.8,30.22,WNW,282,0.0,0.0,74,0.00,,---,0.00,0.00,VWS V14.01,2013-03-27 06:44:00,
2013-03-27 02:49:00,35.1,27.7,30.22,WNW,282,0.0,0.0,74,0.00,,---,0.00,0.00,VWS V14.01,2013-03-27 06:49:00,
2013-03-27 02:54:00,35.0,27.6,30.22,WNW,282,0.0,0.0,74,0.00,,---,0.00,0.00,VWS V14.01,2013-03-27 06:54:00,
2013-03-27 02:59:00,34.9,27.5,30.22,WNW,282,0.0,0.0,74,0.00,,---,0.00,0.00,VWS V14.01,2013-03-27 06:59:00,
2013-03-27 03:04:00,34.8,27.7,30.22,WNW,282,0.0,0.0,75,0.00,,---,0.00,0.00,VWS V14.01,2013-03-27 07:04:00,
2013-03-27 03:10:00,34.6,27.5,30.22,WNW,282,0.0,0.0,75,0.00,,---,0.00,0.00,VWS V14.01,2013-03-27 07:10:00,
2013-03-27 03:15:00,34.4,27.6,30.21,WNW,282,0.0,2.0,76,0.00,,---,0.00,0.00,VWS V14.01,2013-03-27 07:15:00,
2013-03-27 03:20:00,34.3,27.5,30.21,WNW,282,0.0,0.0,76,0.00,,---,0.00,0.00,VWS V14.01,2013-03-27 07:20:00,
2013-03-27 03:25:00,34.2,27.4,30.22,WNW,282,0.0,0.0,76,0.00,,---,0.00,0.00,VWS V14.01,2013-03-27 07:25:00,
2013-03-27 03:30:00,34.0,27.6,30.22,WNW,282,0.0,0.0,77,0.00,,---,0.00,0.00,VWS V14.01,2013-03-27 07:30:00,
2013-03-27 03:36:00,33.8,27.4,30.22,WNW,282,0.0,0.0,77,0.00,,---,0.00,0.00,VWS V14.01,2013-03-27 07:36:00,
2013-03-27 03:41:00,33.6,27.2,30.22,WNW,282,0.0,0.0,77,0.00,,---,0.00,0.00,VWS V14.01,2013-03-27 07:41:00,
2013-03-27 03:46:00,33.4,27.3,30.22,WNW,282,0.0,0.0,78,0.00,,---,0.00,0.00,VWS V14.01,2013-03-27 07:46:00,
2013-03-27 03:51:00,33.2,27.1,30.23,WNW,282,0.0,0.0,78,0.00,,---,0.00,0.00,VWS V14.01,2013-03-27 07:51:00,
2013-03-27 03:56:00,33.0,27.2,30.23,WNW,282,0.0,0.0,79,0.00,,---,0.00,0.00,VWS V14.01,2013-03-27 07:56:00,
2013-03-27 04:02:00,32.9,27.1,30.23,WNW,282,0.0,0.0,79,0.00,,---,0.00,0.00,VWS V14.01,2013-03-27 08:02:00,
2013-03-27 04:07:00,32.7,27.2,30.23,WNW,282,0.0,0.0,80,0.00,,---,0.00,0.00,VWS V14.01,2013-03-27 08:07:00,
2013-03-27 04:12:00,32.6,27.1,30.22,WNW,282,0.0,0.0,80,0.00,,---,0.00,0.00,VWS V14.01,2013-03-27 08:12:00,
2013-03-27 04:17:00,32.4,27.2,30.22,WNW,282,0.0,0.0,81,0.00,,---,0.00,0.00,VWS V14.01,2013-03-27 08:17:00,
2013-03-27 04:22:00,32.3,27.1,30.22,WNW,282,0.0,0.0,81,0.00,,---,0.00,0.00,VWS V14.01,2013-03-27 08:22:00,
2013-03-27 04:27:00,32.1,27.2,30.22,WNW,282,0.0,0.0,82,0.00,,---,0.00,0.00,VWS V14.01,2013-03-27 08:27:00,
2013-03-27 04:32:00,31.9,27.0,30.22,WNW,282,0.0,0.0,82,0.00,,---,0.00,0.00,VWS V14.01,2013-03-27 08:32:00,
2013-03-27 04:37:00,31.7,27.1,30.22,WNW,282,0.0,0.0,83,0.00,,---,0.00,0.00,VWS V14.01,2013-03-27 08:37:00,
2013-03-27 04:42:00,31.5,26.9,30.22,WNW,282,0.0,0.0,83,0.00,,---,0.00,0.00,VWS V14.01,2013-03-27 08:42:00,
2013-03-27 04:48:00,31.4,26.8,30.21,WNW,282,0.0,0.0,83,0.00,,---,0.00,0.00,VWS V14.01,2013-03-27 08:48:00,
2013-03-27 04:53:00,31.3,26.8,30.22,WNW,282,0.0,0.0,83,0.00,,---,0.00,0.00,VWS V14.01,2013-03-27 08:53:00,
2013-03-27 04:58:00,31.1,26.5,30.22,WNW,282,0.0,0.0,83,0.00,,---,0.00,0.00,VWS V14.01,2013-03-27 08:58:00,
2013-03-27 05:03:00,31.0,26.5,30.23,WNW,282,0.0,0.0,83,0.00,,---,0.00,0.00,VWS V14.01,2013-03-27 09:03:00,
2013-03-27 05:08:00,30.8,26.3,30.23,WNW,282,0.0,0.0,83,0.00,,---,0.00,0.00,VWS V14.01,2013-03-27 09:08:00,
2013-03-27 05:14:00,30.6,26.1,30.23,WNW,282,0.0,0.0,83,0.00,,---,0.00,0.00,VWS V14.01,2013-03-27 09:14:00,
2013-03-27 05:19:00,30.5,26.2,30.22,WNW,282,0.0,0.0,84,0.00,,---,0.00,0.00,VWS V14.01,2013-03-27 09:19:00,
2013-03-27 05:24:00,30.4,26.1,30.23,WNW,282,0.0,0.0,84,0.00,,---,0.00,0.00,VWS V14.01,2013-03-27 09:24:00,
2013-03-27 05:29:00,30.3,26.3,30.23,WNW,282,0.0,0.0,85,0.00,,---,0.00,0.00,VWS V14.01,2013-03-27 09:29:00,
2013-03-27 05:34:00,30.1,26.1,30.23,WNW,282,0.0,0.0,85,0.00,,---,0.00,0.00,VWS V14.01,2013-03-27 09:34:00,
2013-03-27 05:39:00,30.0,26.3,30.24,WNW,282,0.0,0.0,86,0.00,,---,0.00,0.00,VWS V14.01,2013-03-27 09:39:00,
2013-03-27 05:46:00,29.9,26.2,30.24,WNW,282,0.0,0.0,86,0.00,,---,0.00,0.00,VWS V14.01,2013-03-27 09:46:00,
2013-03-27 05:51:00,29.8,26.1,30.24,WNW,282,0.0,0.0,86,0.00,,---,0.00,0.00,VWS V14.01,2013-03-27 09:51:00,
2013-03-27 05:56:00,29.6,25.9,30.23,WNW,282,0.0,0.0,86,0.00,,---,0.00,0.00,VWS V14.01,2013-03-27 09:56:00,
2013-03-27 06:01:00,29.5,25.8,30.24,WNW,282,0.0,0.0,86,0.00,,---,0.00,0.00,VWS V14.01,2013-03-27 10:01:00,
2013-03-27 06:06:00,29.4,25.7,30.23,WNW,282,0.0,0.0,86,0.00,,---,0.00,0.00,VWS V14.01,2013-03-27 10:06:00,
2013-03-27 06:12:00,29.2,25.5,30.24,WNW,282,0.0,0.0,86,0.00,,---,0.00,0.00,VWS V14.01,2013-03-27 10:12:00,
2013-03-27 06:17:00,29.1,25.4,30.24,WNW,282,0.0,0.0,86,0.00,,---,0.00,0.00,VWS V14.01,2013-03-27 10:17:00,
2013-03-27 06:22:00,29.0,25.4,30.24,WNW,282,0.0,0.0,86,0.00,,---,0.00,0.00,VWS V14.01,2013-03-27 10:22:00,
2013-03-27 06:27:00,28.9,25.2,30.25,WNW,282,0.0,0.0,86,0.00,,---,0.00,0.00,VWS V14.01,2013-03-27 10:27:00,
2013-03-27 06:32:00,28.8,25.4,30.25,WNW,282,0.0,0.0,87,0.00,,---,0.00,0.00,VWS V14.01,2013-03-27 10:32:00,
2013-03-27 06:38:00,28.7,25.3,30.26,WNW,282,0.0,0.0,87,0.00,,---,0.00,0.00,VWS V14.01,2013-03-27 10:38:00,
2013-03-27 06:43:00,28.6,25.2,30.26,WNW,282,0.0,0.0,87,0.00,,---,0.00,0.00,VWS V14.01,2013-03-27 10:43:00,
2013-03-27 06:48:00,28.5,25.1,30.26,WNW,282,0.0,0.0,87,0.00,,---,0.00,0.00,VWS V14.01,2013-03-27 10:48:00,
2013-03-27 06:53:00,28.5,25.1,30.26,WNW,282,0.0,0.0,87,0.00,,---,0.00,0.00,VWS V14.01,2013-03-27 10:53:00,
2013-03-27 06:58:00,28.4,25.0,30.26,WNW,282,0.0,0.0,87,0.00,,---,0.00,0.00,VWS V14.01,2013-03-27 10:58:00,
2013-03-27 07:03:00,28.3,24.9,30.26,WNW,282,0.0,0.0,87,0.00,,---,0.00,0.00,VWS V14.01,2013-03-27 11:03:00,
2013-03-27 07:08:00,28.3,25.2,30.27,WNW,282,0.0,0.0,88,0.00,,---,0.00,0.00,VWS V14.01,2013-03-27 11:08:00,
2013-03-27 07:14:00,28.3,25.2,30.27,WNW,282,0.0,0.0,88,0.00,,---,0.00,0.00,VWS V14.01,2013-03-27 11:14:00,
2013-03-27 07:19:00,28.3,25.2,30.27,WNW,282,0.0,0.0,88,0.00,,---,0.00,5.00,VWS V14.01,2013-03-27 11:19:00,
2013-03-27 07:24:00,28.2,25.1,30.27,WNW,282,0.0,0.0,88,0.00,,---,0.00,9.00,VWS V14.01,2013-03-27 11:24:00,
2013-03-27 07:29:00,28.2,25.1,30.27,WNW,282,0.0,0.0,88,0.00,,---,0.00,12.00,VWS V14.01,2013-03-27 11:29:00,
2013-03-27 07:34:00,28.1,25.0,30.28,WNW,282,0.0,0.0,88,0.00,,---,0.00,16.00,VWS V14.01,2013-03-27 11:34:00,
2013-03-27 07:39:00,28.2,25.4,30.27,WNW,282,0.0,0.0,89,0.00,,---,0.00,19.00,VWS V14.01,2013-03-27 11:39:00,
2013-03-27 07:44:00,28.2,25.4,30.27,WNW,282,0.0,0.0,89,0.00,,---,0.00,21.00,VWS V14.01,2013-03-27 11:44:00,
2013-03-27 07:50:00,28.3,25.5,30.28,WNW,282,0.0,0.0,89,0.00,,---,0.00,25.00,VWS V14.01,2013-03-27 11:50:00,
2013-03-27 07:55:00,28.3,25.5,30.28,WNW,282,0.0,0.0,89,0.00,,---,0.00,28.00,VWS V14.01,2013-03-27 11:55:00,
2013-03-27 08:00:00,28.3,25.5,30.28,WNW,282,0.0,0.0,89,0.00,,---,0.00,35.00,VWS V14.01,2013-03-27 12:00:00,
2013-03-27 08:05:00,28.4,25.6,30.29,WNW,282,0.0,0.0,89,0.00,,---,0.00,53.00,VWS V14.01,2013-03-27 12:05:00,
2013-03-27 08:10:00,28.6,26.0,30.29,WNW,282,0.0,0.0,90,0.00,,---,0.00,60.00,VWS V14.01,2013-03-27 12:10:00,
2013-03-27 08:15:00,28.9,26.3,30.29,WNW,282,0.0,0.0,90,0.00,,---,0.00,76.00,VWS V14.01,2013-03-27 12:15:00,
2013-03-27 08:20:00,29.4,26.8,30.29,WNW,282,0.0,0.0,90,0.00,,---,0.00,98.00,VWS V14.01,2013-03-27 12:20:00,
2013-03-27 08:25:00,29.9,27.3,30.29,WNW,282,0.0,0.0,90,0.00,,---,0.00,109.00,VWS V14.01,2013-03-27 12:25:00,
2013-03-27 08:30:00,30.5,27.9,30.29,WNW,282,0.0,0.0,90,0.00,,---,0.00,125.00,VWS V14.01,2013-03-27 12:30:00,
2013-03-27 08:36:00,31.0,28.4,30.29,WNW,282,0.0,0.0,90,0.00,,---,0.00,139.00,VWS V14.01,2013-03-27 12:36:00,
2013-03-27 08:41:00,31.7,29.1,30.29,WNW,282,0.0,0.0,90,0.00,,---,0.00,156.00,VWS V14.01,2013-03-27 12:41:00,
2013-03-27 08:46:00,32.5,29.6,30.29,WNW,282,0.0,1.0,89,0.00,,---,0.00,169.00,VWS V14.01,2013-03-27 12:46:00,
2013-03-27 08:51:00,33.2,30.0,30.29,West,280,0.0,5.0,88,0.00,,---,0.00,178.00,VWS V14.01,2013-03-27 12:51:00,
2013-03-27 08:57:00,34.1,30.4,30.30,West,269,0.0,2.0,86,0.00,,---,0.00,172.00,VWS V14.01,2013-03-27 12:57:00,
2013-03-27 09:02:00,35.1,30.5,30.30,West,278,0.0,0.0,83,0.00,,---,0.00,183.00,VWS V14.01,2013-03-27 13:02:00,
2013-03-27 09:07:00,35.9,30.6,30.30,West,281,0.0,3.0,81,0.00,,---,0.00,214.00,VWS V14.01,2013-03-27 13:07:00,
2013-03-27 09:12:00,36.7,30.5,30.30,WNW,287,2.0,2.0,78,0.00,,---,0.00,243.00,VWS V14.01,2013-03-27 13:12:00,
2013-03-27 09:17:00,37.4,30.5,30.30,WNW,284,0.0,0.0,76,0.00,,---,0.00,260.00,VWS V14.01,2013-03-27 13:17:00,
2013-03-27 09:22:00,38.1,31.2,30.30,WNW,284,4.0,5.0,76,0.00,,---,0.00,278.00,VWS V14.01,2013-03-27 13:22:00,
2013-03-27 09:27:00,38.8,30.9,30.30,West,277,1.0,4.0,73,0.00,,---,0.00,297.00,VWS V14.01,2013-03-27 13:27:00,
2013-03-27 09:32:00,39.5,30.9,30.30,West,281,0.0,0.0,71,0.00,,---,0.00,313.00,VWS V14.01,2013-03-27 13:32:00,
2013-03-27 09:37:00,40.1,31.1,30.30,WNW,283,0.0,4.0,70,0.00,,---,0.00,329.00,VWS V14.01,2013-03-27 13:37:00,
2013-03-27 09:43:00,40.9,31.2,30.30,NNW,348,0.0,4.0,68,0.00,,---,0.00,329.00,VWS V14.01,2013-03-27 13:43:00,
2013-03-27 09:48:00,41.7,31.9,30.30,NW,321,2.0,4.0,68,0.00,,---,0.00,297.00,VWS V14.01,2013-03-27 13:48:00,
2013-03-27 09:53:00,42.4,31.5,30.30,WNW,303,0.0,3.0,65,0.00,,---,0.00,334.00,VWS V14.01,2013-03-27 13:53:00,
2013-03-27 09:58:00,43.1,31.8,30.30,NW,309,2.0,6.0,64,0.00,,---,0.00,381.00,VWS V14.01,2013-03-27 13:58:00,
2013-03-27 10:03:00,43.8,31.2,30.29,NNW,344,2.0,7.0,61,0.00,,---,0.00,394.00,VWS V14.01,2013-03-27 14:03:00,
2013-03-27 10:08:00,44.3,31.7,30.30,NW,307,0.0,6.0,61,0.00,,---,0.00,406.00,VWS V14.01,2013-03-27 14:08:00,
2013-03-27 10:14:00,44.8,31.4,30.30,WNW,294,0.0,5.0,59,0.00,,---,0.00,422.00,VWS V14.01,2013-03-27 14:14:00,
2013-03-27 10:19:00,45.3,30.5,30.30,NNW,328,0.0,9.0,56,0.00,,---,0.00,436.00,VWS V14.01,2013-03-27 14:19:00,
2013-03-27 10:24:00,45.8,31.0,30.30,NNW,331,0.0,5.0,56,0.00,,---,0.00,445.00,VWS V14.01,2013-03-27 14:24:00,
2013-03-27 10:29:00,46.3,30.1,30.30,WNW,285,1.0,8.0,53,0.00,,---,0.00,459.00,VWS V14.01,2013-03-27 14:29:00,
2013-03-27 10:34:00,46.6,29.9,30.30,NNW,337,0.0,7.0,52,0.00,,---,0.00,461.00,VWS V14.01,2013-03-27 14:34:00,
2013-03-27 10:39:00,46.8,28.7,30.29,NNW,341,0.0,6.0,49,0.00,,---,0.00,471.00,VWS V14.01,2013-03-27 14:39:00,
2013-03-27 10:44:00,47.5,28.8,30.30,WNW,291,0.0,8.0,48,0.00,,---,0.00,497.00,VWS V14.01,2013-03-27 14:44:00,
2013-03-27 10:50:00,47.5,28.8,30.30,WNW,283,2.0,10.0,48,0.00,,---,0.00,510.00,VWS V14.01,2013-03-27 14:50:00,
2013-03-27 10:55:00,47.6,28.4,30.30,WNW,299,0.0,5.0,47,0.00,,---,0.00,494.00,VWS V14.01,2013-03-27 14:55:00,
2013-03-27 11:00:00,47.7,29.5,30.30,North,10,0.0,6.0,49,0.00,,---,0.00,468.00,VWS V14.01,2013-03-27 15:00:00,
2013-03-27 11:05:00,48.2,29.5,30.29,WSW,246,8.0,8.0,48,0.00,,---,0.00,471.00,VWS V14.01,2013-03-27 15:05:00,
2013-03-27 11:10:00,48.3,28.5,30.30,WNW,295,1.0,8.0,46,0.00,,---,0.00,497.00,VWS V14.01,2013-03-27 15:10:00,
2013-03-27 11:15:00,48.7,28.3,30.30,WNW,294,3.0,9.0,45,0.00,,---,0.00,580.00,VWS V14.01,2013-03-27 15:15:00,
2013-03-27 11:20:00,49.0,29.1,30.30,West,261,0.0,6.0,46,0.00,,---,0.00,643.00,VWS V14.01,2013-03-27 15:20:00,
2013-03-27 11:26:00,49.4,29.5,30.29,WSW,255,7.0,12.0,46,0.00,,---,0.00,721.00,VWS V14.01,2013-03-27 15:26:00,
2013-03-27 11:31:00,49.4,28.4,30.29,WSW,247,6.0,7.0,44,0.00,,---,0.00,763.00,VWS V14.01,2013-03-27 15:31:00,
2013-03-27 11:36:00,49.6,28.6,30.29,West,274,6.0,9.0,44,0.00,,---,0.00,784.00,VWS V14.01,2013-03-27 15:36:00,
2013-03-27 11:42:00,49.6,27.5,30.29,SW,221,0.0,5.0,42,0.00,,---,0.00,809.00,VWS V14.01,2013-03-27 15:42:00,
2013-03-27 11:47:00,49.6,28.6,30.29,WSW,252,9.0,11.0,44,0.00,,---,0.00,828.00,VWS V14.01,2013-03-27 15:47:00,
2013-03-27 11:52:00,50.1,28.5,30.29,West,277,13.0,13.0,43,0.00,,---,0.00,851.00,VWS V14.01,2013-03-27 15:52:00,
2013-03-27 11:57:00,50.3,28.1,30.29,WNW,288,0.0,4.0,42,0.00,,---,0.00,870.00,VWS V14.01,2013-03-27 15:57:00,
2013-03-27 12:02:00,50.6,29.0,30.29,WSW,238,9.0,9.0,43,0.00,,---,0.00,891.00,VWS V14.01,2013-03-27 16:02:00,
2013-03-27 12:08:00,51.0,29.3,30.28,WNW,283,5.0,7.0,43,0.00,,---,0.00,902.00,VWS V14.01,2013-03-27 16:08:00,
2013-03-27 12:13:00,50.9,27.5,30.28,West,262,0.0,9.0,40,0.00,,---,0.00,911.00,VWS V14.01,2013-03-27 16:13:00,
2013-03-27 12:18:00,51.2,28.9,30.28,SW,234,6.0,6.0,42,0.00,,---,0.00,918.00,VWS V14.01,2013-03-27 16:18:00,
2013-03-27 12:23:00,50.7,29.6,30.28,SE,138,6.0,7.0,44,0.00,,---,0.00,925.00,VWS V14.01,2013-03-27 16:23:00,
2013-03-27 12:28:00,51.2,28.3,30.28,WNW,286,4.0,10.0,41,0.00,,---,0.00,933.00,VWS V14.01,2013-03-27 16:28:00,
2013-03-27 12:33:00,51.5,28.6,30.27,WSW,250,7.0,10.0,41,0.00,,---,0.00,940.00,VWS V14.01,2013-03-27 16:33:00,
2013-03-27 12:38:00,51.9,29.0,30.27,WSW,241,7.0,12.0,41,0.00,,---,0.00,942.00,VWS V14.01,2013-03-27 16:38:00,
2013-03-27 12:43:00,51.4,28.5,30.27,WSW,254,6.0,14.0,41,0.00,,---,0.00,944.00,VWS V14.01,2013-03-27 16:43:00,
2013-03-27 12:49:00,52.2,29.2,30.27,West,267,8.0,11.0,41,0.00,,---,0.00,947.00,VWS V14.01,2013-03-27 16:49:00,
2013-03-27 12:54:00,52.8,28.5,30.27,WNW,283,10.0,11.0,39,0.00,,---,0.00,956.00,VWS V14.01,2013-03-27 16:54:00,
2013-03-27 12:59:00,53.2,29.5,30.27,WNW,296,9.0,11.0,40,0.00,,---,0.00,958.00,VWS V14.01,2013-03-27 16:59:00,
2013-03-27 13:04:00,53.1,29.4,30.27,WSW,252,9.0,10.0,40,0.00,,---,0.00,962.00,VWS V14.01,2013-03-27 17:04:00,
2013-03-27 13:09:00,53.0,30.5,30.26,NNW,344,8.0,8.0,42,0.00,,---,0.00,965.00,VWS V14.01,2013-03-27 17:09:00,
2013-03-27 13:14:00,53.2,28.9,30.26,WSW,255,15.0,15.0,39,0.00,,---,0.00,965.00,VWS V14.01,2013-03-27 17:14:00,
2013-03-27 13:20:00,53.5,29.2,30.26,WNW,290,7.0,11.0,39,0.00,,---,0.00,970.00,VWS V14.01,2013-03-27 17:20:00,
2013-03-27 13:25:00,53.4,30.3,30.26,SW,223,5.0,11.0,41,0.00,,---,0.00,970.00,VWS V14.01,2013-03-27 17:25:00,
2013-03-27 13:30:00,53.6,29.9,30.26,WNW,295,3.0,9.0,40,0.00,,---,0.00,965.00,VWS V14.01,2013-03-27 17:30:00,
2013-03-27 13:35:00,53.9,28.2,30.26,WNW,296,4.0,9.0,37,0.00,,---,0.00,970.00,VWS V14.01,2013-03-27 17:35:00,
2013-03-27 13:40:00,53.7,28.7,30.25,NW,319,2.0,10.0,38,0.00,,---,0.00,967.00,VWS V14.01,2013-03-27 17:40:00,
2013-03-27 13:45:00,53.9,28.2,30.25,West,281,3.0,11.0,37,0.00,,---,0.00,970.00,VWS V14.01,2013-03-27 17:45:00,
2013-03-27 13:50:00,54.3,28.6,30.25,West,281,5.0,12.0,37,0.00,,---,0.00,970.00,VWS V14.01,2013-03-27 17:50:00,
2013-03-27 13:56:00,54.4,28.0,30.25,West,262,5.0,12.0,36,0.00,,---,0.00,967.00,VWS V14.01,2013-03-27 17:56:00,
2013-03-27 14:01:00,53.7,26.7,30.25,WNW,301,3.0,10.0,35,0.00,,---,0.00,962.00,VWS V14.01,2013-03-27 18:01:00,
2013-03-27 14:06:00,54.1,29.7,30.25,WNW,285,4.0,4.0,39,0.00,,---,0.00,962.00,VWS V14.01,2013-03-27 18:06:00,
2013-03-27 14:12:00,55.2,28.7,30.25,West,265,6.0,10.0,36,0.00,,---,0.00,953.00,VWS V14.01,2013-03-27 18:12:00,
2013-03-27 14:17:00,55.4,28.9,30.24,WNW,302,4.0,7.0,36,0.00,,---,0.00,949.00,VWS V14.01,2013-03-27 18:17:00,
2013-03-27 14:22:00,55.5,29.7,30.24,West,276,6.0,17.0,37,0.00,,---,0.00,942.00,VWS V14.01,2013-03-27 18:22:00,
2013-03-27 14:27:00,56.1,28.8,30.24,NW,317,6.0,8.0,35,0.00,,---,0.00,944.00,VWS V14.01,2013-03-27 18:27:00,
2013-03-27 14:32:00,56.2,28.9,30.24,NNE,13,2.0,9.0,35,0.00,,---,0.00,930.00,VWS V14.01,2013-03-27 18:32:00,
2013-03-27 14:37:00,55.7,29.2,30.24,WNW,284,4.0,8.0,36,0.00,,---,0.00,925.00,VWS V14.01,2013-03-27 18:37:00,
2013-03-27 14:42:00,56.1,29.5,30.23,SW,236,5.0,5.0,36,0.00,,---,0.00,914.00,VWS V14.01,2013-03-27 18:42:00,
2013-03-27 14:48:00,56.2,28.2,30.23,West,270,8.0,11.0,34,0.00,,---,0.00,909.00,VWS V14.01,2013-03-27 18:48:00,
2013-03-27 14:53:00,56.4,29.1,30.23,West,264,5.0,5.0,35,0.00,,---,0.00,900.00,VWS V14.01,2013-03-27 18:53:00,
2013-03-27 14:58:00,56.6,30.0,30.23,WNW,298,3.0,9.0,36,0.00,,---,0.00,891.00,VWS V14.01,2013-03-27 18:58:00,
2013-03-27 15:03:00,56.7,27.2,30.23,WNW,290,3.0,12.0,32,0.00,,---,0.00,810.00,VWS V14.01,2013-03-27 19:03:00,
2013-03-27 15:08:00,56.6,28.6,30.23,NNE,28,8.0,14.0,34,0.00,,---,0.00,545.00,VWS V14.01,2013-03-27 19:08:00,
2013-03-27 15:13:00,56.9,28.8,30.23,WNW,294,7.0,17.0,34,0.00,,---,0.00,826.00,VWS V14.01,2013-03-27 19:13:00,
2013-03-27 15:18:00,57.3,29.2,30.22,NW,309,0.0,8.0,34,0.00,,---,0.00,800.00,VWS V14.01,2013-03-27 19:18:00,
2013-03-27 15:23:00,57.8,29.6,30.22,NNW,346,1.0,7.0,34,0.00,,---,0.00,759.00,VWS V14.01,2013-03-27 19:23:00,
2013-03-27 15:29:00,57.5,29.4,30.22,NW,307,4.0,12.0,34,0.00,,---,0.00,715.00,VWS V14.01,2013-03-27 19:29:00,
2013-03-27 15:34:00,57.7,31.0,30.22,WNW,294,2.0,13.0,36,0.00,,---,0.00,682.00,VWS V14.01,2013-03-27 19:34:00,
2013-03-27 15:39:00,58.3,30.1,30.22,WNW,302,8.0,16.0,34,0.00,,---,0.00,650.00,VWS V14.01,2013-03-27 19:39:00,
2013-03-27 15:44:00,58.0,29.8,30.21,WSW,249,7.0,12.0,34,0.00,,---,0.00,626.00,VWS V14.01,2013-03-27 19:44:00,
2013-03-27 15:49:00,57.8,29.6,30.22,West,259,11.0,13.0,34,0.00,,---,0.00,613.00,VWS V14.01,2013-03-27 19:49:00,
2013-03-27 15:54:00,57.5,28.6,30.21,WNW,288,5.0,9.0,33,0.00,,---,0.00,610.00,VWS V14.01,2013-03-27 19:54:00,
2013-03-27 16:00:00,57.9,29.0,30.21,WNW,293,10.0,12.0,33,0.00,,---,0.00,615.00,VWS V14.01,2013-03-27 20:00:00,
2013-03-27 16:05:00,58.2,28.5,30.21,West,259,8.0,11.0,32,0.00,,---,0.00,628.00,VWS V14.01,2013-03-27 20:05:00,
2013-03-27 16:10:00,58.0,30.5,30.21,West,268,4.0,7.0,35,0.00,,---,0.00,642.00,VWS V14.01,2013-03-27 20:10:00,
2013-03-27 16:15:00,58.1,29.9,30.21,West,281,10.0,11.0,34,0.00,,---,0.00,654.00,VWS V14.01,2013-03-27 20:15:00,
2013-03-27 16:20:00,58.2,29.3,30.20,West,278,4.0,10.0,33,0.00,,---,0.00,666.00,VWS V14.01,2013-03-27 20:20:00,
2013-03-27 16:25:00,58.2,29.3,30.20,NW,308,4.0,14.0,33,0.00,,---,0.00,589.00,VWS V14.01,2013-03-27 20:25:00,
2013-03-27 16:30:00,58.1,27.6,30.20,WNW,288,6.0,10.0,31,0.00,,---,0.00,77.00,VWS V14.01,2013-03-27 20:30:00,
2013-03-27 16:35:00,58.0,28.3,30.20,SW,228,3.0,11.0,32,0.00,,---,0.00,137.00,VWS V14.01,2013-03-27 20:35:00,
2013-03-27 16:40:00,57.9,28.2,30.20,West,264,9.0,14.0,32,0.00,,---,0.00,631.00,VWS V14.01,2013-03-27 20:40:00,
2013-03-27 16:46:00,58.3,29.3,30.20,West,279,3.0,10.0,33,0.00,,---,0.00,615.00,VWS V14.01,2013-03-27 20:46:00,
2013-03-27 16:51:00,58.6,29.6,30.20,NNW,338,5.0,14.0,33,0.00,,---,0.00,594.00,VWS V14.01,2013-03-27 20:51:00,
2013-03-27 16:56:00,58.3,27.8,30.20,West,261,11.0,12.0,31,0.00,,---,0.00,577.00,VWS V14.01,2013-03-27 20:56:00,
2013-03-27 17:02:00,58.1,27.6,30.20,West,271,9.0,9.0,31,0.00,,---,0.00,557.00,VWS V14.01,2013-03-27 21:02:00,
2013-03-27 17:07:00,58.1,28.4,30.20,NW,313,0.0,3.0,32,0.00,,---,0.00,538.00,VWS V14.01,2013-03-27 21:07:00,
2013-03-27 17:12:00,58.3,29.3,30.20,WNW,290,9.0,11.0,33,0.00,,---,0.00,520.00,VWS V14.01,2013-03-27 21:12:00,
2013-03-27 17:17:00,58.4,28.7,30.19,NNW,346,3.0,4.0,32,0.00,,---,0.00,501.00,VWS V14.01,2013-03-27 21:17:00,
2013-03-27 17:22:00,58.3,28.6,30.19,WNW,286,1.0,4.0,32,0.00,,---,0.00,478.00,VWS V14.01,2013-03-27 21:22:00,
2013-03-27 17:27:00,58.2,28.5,30.20,WNW,290,11.0,14.0,32,0.00,,---,0.00,461.00,VWS V14.01,2013-03-27 21:27:00,
2013-03-27 17:32:00,58.1,28.4,30.20,WNW,286,4.0,9.0,32,0.00,,---,0.00,441.00,VWS V14.01,2013-03-27 21:32:00,
2013-03-27 17:37:00,58.1,29.9,30.20,WSW,244,5.0,7.0,34,0.00,,---,0.00,425.00,VWS V14.01,2013-03-27 21:37:00,
2013-03-27 17:42:00,58.0,29.1,30.20,West,280,7.0,11.0,33,0.00,,---,0.00,406.00,VWS V14.01,2013-03-27 21:42:00,
2013-03-27 17:48:00,58.0,29.1,30.19,WNW,282,7.0,13.0,33,0.00,,---,0.00,383.00,VWS V14.01,2013-03-27 21:48:00,
2013-03-27 17:53:00,57.8,28.9,30.20,WNW,295,7.0,8.0,33,0.00,,---,0.00,360.00,VWS V14.01,2013-03-27 21:53:00,
2013-03-27 17:58:00,57.6,29.5,30.20,WSW,255,13.0,13.0,34,0.00,,---,0.00,346.00,VWS V14.01,2013-03-27 21:58:00,
2013-03-27 18:03:00,57.6,28.7,30.20,WSW,257,4.0,10.0,33,0.00,,---,0.00,320.00,VWS V14.01,2013-03-27 22:03:00,
2013-03-27 18:08:00,57.5,28.6,30.20,West,265,11.0,13.0,33,0.00,,---,0.00,304.00,VWS V14.01,2013-03-27 22:08:00,
2013-03-27 18:13:00,57.4,30.0,30.20,West,277,3.0,9.0,35,0.00,,---,0.00,283.00,VWS V14.01,2013-03-27 22:13:00,
2013-03-27 18:18:00,57.5,29.4,30.20,West,275,6.0,10.0,34,0.00,,---,0.00,265.00,VWS V14.01,2013-03-27 22:18:00,
2013-03-27 18:23:00,57.4,28.5,30.20,WSW,249,7.0,7.0,33,0.00,,---,0.00,241.00,VWS V14.01,2013-03-27 22:23:00,
2013-03-27 18:28:00,57.2,27.6,30.20,WNW,284,5.0,6.0,32,0.00,,---,0.00,214.00,VWS V14.01,2013-03-27 22:28:00,
2013-03-27 18:33:00,57.1,28.3,30.20,WNW,293,0.0,5.0,33,0.00,,---,0.00,186.00,VWS V14.01,2013-03-27 22:33:00,
2013-03-27 18:38:00,57.1,28.3,30.20,WNW,298,5.0,6.0,33,0.00,,---,0.00,151.00,VWS V14.01,2013-03-27 22:38:00,
2013-03-27 18:43:00,57.1,29.0,30.19,WNW,284,7.0,9.0,34,0.00,,---,0.00,128.00,VWS V14.01,2013-03-27 22:43:00,
2013-03-27 18:49:00,56.7,28.7,30.20,West,264,5.0,7.0,34,0.00,,---,0.00,107.00,VWS V14.01,2013-03-27 22:49:00,
2013-03-27 18:54:00,56.5,29.2,30.20,WNW,282,4.0,5.0,35,0.00,,---,0.00,84.00,VWS V14.01,2013-03-27 22:54:00,
2013-03-27 18:59:00,56.2,28.9,30.20,West,263,4.0,6.0,35,0.00,,---,0.00,67.00,VWS V14.01,2013-03-27 22:59:00,
2013-03-27 19:04:00,55.9,28.7,30.20,West,263,2.0,3.0,35,0.00,,---,0.00,54.00,VWS V14.01,2013-03-27 23:04:00,
2013-03-27 19:09:00,55.6,29.1,30.20,West,263,0.0,5.0,36,0.00,,---,0.00,46.00,VWS V14.01,2013-03-27 23:09:00,
2013-03-27 19:15:00,55.3,29.5,30.19,West,263,3.0,3.0,37,0.00,,---,0.00,35.00,VWS V14.01,2013-03-27 23:15:00,
2013-03-27 19:20:00,54.9,28.5,30.20,WNW,284,3.0,7.0,36,0.00,,---,0.00,28.00,VWS V14.01,2013-03-27 23:20:00,
2013-03-27 19:25:00,54.5,28.8,30.20,West,275,0.0,4.0,37,0.00,,---,0.00,21.00,VWS V14.01,2013-03-27 23:25:00,
2013-03-27 19:30:00,54.1,29.1,30.20,West,274,0.0,4.0,38,0.00,,---,0.00,16.00,VWS V14.01,2013-03-27 23:30:00,
2013-03-27 19:35:00,53.7,28.7,30.20,West,275,0.0,3.0,38,0.00,,---,0.00,11.00,VWS V14.01,2013-03-27 23:35:00,
2013-03-27 19:40:00,53.3,29.0,30.20,West,275,0.0,2.0,39,0.00,,---,0.00,5.00,VWS V14.01,2013-03-27 23:40:00,
2013-03-27 19:45:00,53.0,28.7,30.20,West,275,0.0,1.0,39,0.00,,---,0.00,0.00,VWS V14.01,2013-03-27 23:45:00,
2013-03-27 19:50:00,52.7,29.1,30.20,West,275,0.0,0.0,40,0.00,,---,0.00,0.00,VWS V14.01,2013-03-27 23:50:00,
2013-03-27 19:55:00,52.5,29.5,30.20,West,275,0.0,0.0,41,0.00,,---,0.00,0.00,VWS V14.01,2013-03-27 23:55:00,
2013-03-27 20:00:00,52.3,29.3,30.21,West,275,0.0,0.0,41,0.00,,---,0.00,0.00,VWS V14.01,2013-03-28 00:00:00,
2013-03-27 20:05:00,52.0,28.5,30.21,West,275,0.0,0.0,40,0.00,,---,0.00,0.00,VWS V14.01,2013-03-28 00:05:00,
2013-03-27 20:10:00,51.7,28.8,30.21,West,275,0.0,0.0,41,0.00,,---,0.00,0.00,VWS V14.01,2013-03-28 00:10:00,
2013-03-27 20:16:00,51.4,28.5,30.21,West,275,0.0,0.0,41,0.00,,---,0.00,0.00,VWS V14.01,2013-03-28 00:16:00,
2013-03-27 20:21:00,51.1,31.1,30.21,West,275,0.0,0.0,46,0.00,,---,0.00,0.00,VWS V14.01,2013-03-28 00:21:00,
2013-03-27 20:26:00,50.7,32.2,30.21,West,275,0.0,0.0,49,0.00,,---,0.00,0.00,VWS V14.01,2013-03-28 00:26:00,
2013-03-27 20:31:00,50.3,31.4,30.21,West,275,0.0,0.0,48,0.00,,---,0.00,0.00,VWS V14.01,2013-03-28 00:31:00,
2013-03-27 20:37:00,49.7,30.8,30.22,West,275,0.0,0.0,48,0.00,,---,0.00,0.00,VWS V14.01,2013-03-28 00:37:00,
2013-03-27 20:42:00,49.1,30.3,30.22,West,275,0.0,0.0,48,0.00,,---,0.00,0.00,VWS V14.01,2013-03-28 00:42:00,
2013-03-27 20:47:00,48.4,30.6,30.22,West,275,0.0,0.0,50,0.00,,---,0.00,0.00,VWS V14.01,2013-03-28 00:47:00,
2013-03-27 20:52:00,47.9,30.7,30.22,West,275,0.0,0.0,51,0.00,,---,0.00,0.00,VWS V14.01,2013-03-28 00:52:00,
2013-03-27 20:57:00,47.5,32.2,30.22,West,275,0.0,0.0,55,0.00,,---,0.00,0.00,VWS V14.01,2013-03-28 00:57:00,
2013-03-27 21:02:00,47.0,30.3,30.22,West,275,0.0,0.0,52,0.00,,---,0.00,0.00,VWS V14.01,2013-03-28 01:02:00,
2013-03-27 21:07:00,46.7,30.5,30.22,West,275,0.0,0.0,53,0.00,,---,0.00,0.00,VWS V14.01,2013-03-28 01:07:00,
2013-03-27 21:13:00,46.3,29.6,30.22,West,275,0.0,0.0,52,0.00,,---,0.00,0.00,VWS V14.01,2013-03-28 01:13:00,
2013-03-27 21:18:00,45.9,29.8,30.23,West,275,0.0,0.0,53,0.00,,---,0.00,0.00,VWS V14.01,2013-03-28 01:18:00,
2013-03-27 21:23:00,45.6,29.9,30.23,West,275,0.0,0.0,54,0.00,,---,0.00,0.00,VWS V14.01,2013-03-28 01:23:00,
2013-03-27 21:28:00,45.4,29.7,30.23,West,275,0.0,0.0,54,0.00,,---,0.00,0.00,VWS V14.01,2013-03-28 01:28:00,
2013-03-27 21:33:00,45.1,30.8,30.23,West,275,0.0,0.0,57,0.00,,---,0.00,0.00,VWS V14.01,2013-03-28 01:33:00,
2013-03-27 21:38:00,44.8,30.9,30.23,West,275,0.0,0.0,58,0.00,,---,0.00,0.00,VWS V14.01,2013-03-28 01:38:00,
2013-03-27 21:43:00,44.3,30.9,30.23,West,275,0.0,1.0,59,0.00,,---,0.00,0.00,VWS V14.01,2013-03-28 01:43:00,
2013-03-27 21:48:00,43.7,31.5,30.23,West,275,0.0,0.0,62,0.00,,---,0.00,0.00,VWS V14.01,2013-03-28 01:48:00,
2013-03-27 21:53:00,43.2,31.5,30.23,West,275,0.0,0.0,63,0.00,,---,0.00,0.00,VWS V14.01,2013-03-28 01:53:00,
2013-03-27 21:59:00,42.7,31.4,30.23,West,275,0.0,0.0,64,0.00,,---,0.00,0.00,VWS V14.01,2013-03-28 01:59:00,
2013-03-27 22:04:00,42.3,31.8,30.23,West,275,0.0,0.0,66,0.00,,---,0.00,0.00,VWS V14.01,2013-03-28 02:04:00,
2013-03-27 22:09:00,41.9,31.4,30.23,West,275,0.0,0.0,66,0.00,,---,0.00,0.00,VWS V14.01,2013-03-28 02:09:00,
2013-03-27 22:14:00,41.5,31.4,30.23,West,275,0.0,0.0,67,0.00,,---,0.00,0.00,VWS V14.01,2013-03-28 02:14:00,
2013-03-27 22:19:00,41.3,32.3,30.24,West,275,0.0,0.0,70,0.00,,---,0.00,0.00,VWS V14.01,2013-03-28 02:19:00,
2013-03-27 22:24:00,41.0,32.7,30.24,West,275,0.0,0.0,72,0.00,,---,0.00,0.00,VWS V14.01,2013-03-28 02:24:00,
2013-03-27 22:29:00,40.7,32.4,30.24,West,275,0.0,0.0,72,0.00,,---,0.00,0.00,VWS V14.01,2013-03-28 02:29:00,
2013-03-27 22:34:00,40.5,32.2,30.24,West,275,0.0,0.0,72,0.00,,---,0.00,0.00,VWS V14.01,2013-03-28 02:34:00,
2013-03-27 22:39:00,40.2,32.2,30.24,West,275,0.0,0.0,73,0.00,,---,0.00,0.00,VWS V14.01,2013-03-28 02:39:00,
2013-03-27 22:44:00,39.8,32.5,30.24,West,275,0.0,0.0,75,0.00,,---,0.00,0.00,VWS V14.01,2013-03-28 02:44:00,
2013-03-27 22:50:00,39.6,32.7,30.24,West,275,0.0,0.0,76,0.00,,---,0.00,0.00,VWS V14.01,2013-03-28 02:50:00,
2013-03-27 22:55:00,39.3,32.4,30.25,West,275,0.0,0.0,76,0.00,,---,0.00,0.00,VWS V14.01,2013-03-28 02:55:00,
2013-03-27 23:00:00,39.1,32.2,30.24,West,275,0.0,0.0,76,0.00,,---,0.00,0.00,VWS V14.01,2013-03-28 03:00:00,
2013-03-27 23:05:00,38.8,31.9,30.25,West,275,0.0,0.0,76,0.00,,---,0.00,0.00,VWS V14.01,2013-03-28 03:05:00,
2013-03-27 23:10:00,38.7,32.1,30.24,West,275,0.0,0.0,77,0.00,,---,0.00,0.00,VWS V14.01,2013-03-28 03:10:00,
2013-03-27 23:15:00,38.4,32.2,30.24,West,275,0.0,0.0,78,0.00,,---,0.00,0.00,VWS V14.01,2013-03-28 03:15:00,
2013-03-27 23:21:00,38.2,32.3,30.24,West,275,0.0,0.0,79,0.00,,---,0.00,0.00,VWS V14.01,2013-03-28 03:21:00,
2013-03-27 23:26:00,38.0,32.4,30.24,West,275,0.0,0.0,80,0.00,,---,0.00,0.00,VWS V14.01,2013-03-28 03:26:00,
2013-03-27 23:31:00,37.8,32.2,30.24,West,275,0.0,0.0,80,0.00,,---,0.00,0.00,VWS V14.01,2013-03-28 03:31:00,
2013-03-27 23:36:00,37.6,32.3,30.24,West,275,0.0,0.0,81,0.00,,---,0.00,0.00,VWS V14.01,2013-03-28 03:36:00,
2013-03-27 23:42:00,37.4,32.4,30.24,West,275,0.0,0.0,82,0.00,,---,0.00,0.00,VWS V14.01,2013-03-28 03:42:00,
2013-03-27 23:47:00,37.3,32.3,30.24,West,275,0.0,0.0,82,0.00,,---,0.00,0.00,VWS V14.01,2013-03-28 03:47:00,
2013-03-27 23:52:00,37.1,32.4,30.24,West,275,0.0,0.0,83,0.00,,---,0.00,0.00,VWS V14.01,2013-03-28 03:52:00,
2013-03-27 23:57:00,37.0,32.3,30.25,West,275,0.0,0.0,83,0.00,,---,0.00,0.00,VWS V14.01,2013-03-28 03:57:00,